This demonstration page uses our WeatherBlox Daily Observations layout. Learn more.

Left ArrowRight Arrow

41.55636, -103.73856

Hourly Observations for February 28, 2015

Temp ( °F °C ) Dew Point ( °F °C ) Humidity (%) Winds ( mph kmh ) Pressure ( in mb ) Visibility ( mi km ) Precip ( " mm )
12:53 am 00:53 Clear 10 -12.2 5 -15 80 80 SE 12 19 30.16 1021 10 16.0934 0 0
1:53 am 01:53 Clear 9 -12.8 4 -15.6 80 80 ESE 9 15 30.15 1021 10 16.0934 0 0
2:53 am 02:53 Clear 7 -13.9 3 -16.1 84 84 ESE 7 11 30.15 1021 10 16.0934 0 0
3:53 am 03:53 Clear 7 -13.9 3 -16.1 84 84 E 7 11 30.16 1021 10 16.0934 0 0
4:53 am 04:53 Mostly Clear 6 -14.4 2 -16.7 83 83 E 6 9 30.19 1022 10 16.0934 0 0
5:53 am 05:53 Cloudy 9 -12.8 5 -15 84 84 E 7 11 30.19 1022 10 16.0934 0 0
6:53 am 06:53 Cloudy 9 -12.8 5 -15 84 84 SE 3 6 30.21 1023 10 16.0934 0 0
7:53 am 07:53 Sunny 13 -10.6 5 -15 70 70 N 3 6 30.22 1023 10 16.0934 0 0
8:53 am 08:53 Sunny 16 -8.9 7 -13.9 67 67 WNW 7 11 30.23 1024 10 16.0934 0 0
9:53 am 09:53 Sunny 20 -6.7 9 -12.8 62 62 WNW 6 9 30.23 1024 10 16.0934 0 0
10:53 am 10:53 Sunny 25 -3.9 11 -11.7 55 55 Calm 30.22 1023 10 16.0934 0 0
11:53 am 11:53 Partly Cloudy 29 -1.7 12 -11.1 49 49 VRB 3 6 30.18 1022 10 16.0934 0 0
12:53 pm 12:53 Mostly Sunny 31 -0.6 12 -11.1 45 45 VRB 5 7 30.16 1022 10 16.0934 0 0
1:53 pm 13:53 Sunny 32 0 11 -11.7 41 41 E 5 7 30.15 1021 10 16.0934 0 0
2:53 pm 14:53 Sunny 33 0.6 10 -12.2 38 38 VRB 3 6 30.14 1021 10 16.0934 0 0
3:53 pm 15:53 Sunny 32 0 10 -12.2 40 40 ENE 8 13 30.14 1021 10 16.0934 0 0
4:53 pm 16:53 Mostly Sunny 31 -0.6 10 -12.2 42 42 E 9 15 30.16 1021 10 16.0934 0 0
5:53 pm 17:53 Clear 25 -3.9 9 -12.8 50 50 ENE 8 13 30.2 1023 10 16.0934 0 0
6:53 pm 18:53 Clear 24 -4.4 11 -11.7 57 57 ENE 8 13 30.22 1023 10 16.0934 0 0
7:53 pm 19:53 Clear 23 -5 11 -11.7 60 60 ENE 8 13 30.23 1024 10 16.0934 0 0
8:53 pm 20:53 Clear 21 -6.1 12 -11.1 68 68 E 9 15 30.22 1024 10 16.0934 0 0
9:53 pm 21:53 Partly Cloudy 21 -6.1 13 -10.6 71 71 ENE 8 13 30.23 1024 10 16.0934 0 0
10:53 pm 22:53 Cloudy 23 -5 14 -10 68 68 NE 9 15 30.21 1023 10 16.0934 0 0
11:53 pm 23:53 Cloudy 23 -5 13 -10.6 65 65 NE 8 13 30.21 1023 10 16.0934 0 0

Powered by AerisWeather